Time,TemperatureF,DewpointF,PressureIn,WindDirection,WindDirectionDegrees,WindSpeedMPH,WindSpeedGustMPH,Humidity,HourlyPrecipIn,Conditions,Clouds,dailyrainin,SoftwareType,DateUTC
2013-07-20 16:48:00,90.9,77.9,29.93,North,0,0.0,0.0,66,0.00,,,0.00,WUHU21623XXSP,2013-07-20 21:48:00,
2013-07-20 16:49:00,90.9,77.9,29.93,North,0,0.0,0.0,66,0.00,,,0.00,WUHU21623XXSP,2013-07-20 21:49:00,
2013-07-20 16:54:00,91.2,78.2,29.93,North,0,0.0,0.0,66,0.00,,,0.00,WUHU21623XXSP,2013-07-20 21:54:00,
2013-07-20 16:59:00,91.2,78.2,29.93,North,0,0.0,0.0,66,0.00,,,0.00,WUHU21623XXSP,2013-07-20 21:59:00,
2013-07-20 17:04:00,91.6,79.0,29.93,North,0,0.0,0.0,67,0.00,,,0.00,WUHU21623XXSP,2013-07-20 22:04:00,
2013-07-20 17:09:00,91.6,78.5,29.94,North,0,0.0,0.0,66,0.00,,,0.00,WUHU21623XXSP,2013-07-20 22:09:00,
2013-07-20 17:14:00,91.4,78.5,29.94,North,0,0.0,0.0,67,0.00,,,0.00,WUHU21623XXSP,2013-07-20 22:14:00,
2013-07-20 17:19:00,91.2,78.7,29.94,North,0,0.0,0.0,67,0.00,,,0.00,WUHU21623XXSP,2013-07-20 22:19:00,
2013-07-20 17:24:00,90.3,77.9,29.94,North,0,0.0,0.0,67,0.00,,,0.00,WUHU21623XXSP,2013-07-20 22:24:00,
2013-07-20 17:30:00,90.0,77.7,29.94,North,0,0.0,0.0,67,0.00,,,0.00,WUHU21623XXSP,2013-07-20 22:30:00,
2013-07-20 17:35:00,89.2,77.3,29.94,North,0,0.0,0.0,68,0.00,,,0.00,WUHU21623XXSP,2013-07-20 22:35:00,
2013-07-20 17:40:00,88.9,77.1,29.94,North,0,0.0,0.0,69,0.00,,,0.00,WUHU21623XXSP,2013-07-20 22:40:00,
2013-07-20 17:45:00,89.2,77.8,29.95,North,0,0.0,0.0,69,0.00,,,0.00,WUHU21623XXSP,2013-07-20 22:45:00,
2013-07-20 17:50:00,89.4,77.3,29.95,North,0,0.0,0.0,68,0.00,,,0.00,WUHU21623XXSP,2013-07-20 22:50:00,
2013-07-20 17:55:00,89.8,77.0,29.95,North,0,0.0,0.0,66,0.00,,,0.00,WUHU21623XXSP,2013-07-20 22:55:00,
2013-07-20 18:01:00,90.0,77.1,29.95,North,0,0.0,0.0,66,0.00,,,0.00,WUHU21623XXSP,2013-07-20 23:01:00,
2013-07-20 18:06:00,90.3,76.9,29.94,North,0,0.0,0.0,65,0.00,,,0.00,WUHU21623XXSP,2013-07-20 23:06:00,
2013-07-20 18:11:00,90.5,76.9,29.94,North,0,0.0,0.0,66,0.00,,,0.00,WUHU21623XXSP,2013-07-20 23:11:00,
2013-07-20 18:16:00,90.3,77.6,29.95,North,0,0.0,0.0,66,0.00,,,0.00,WUHU21623XXSP,2013-07-20 23:16:00,
2013-07-20 18:21:00,90.1,77.2,29.95,North,0,0.0,0.0,66,0.00,,,0.00,WUHU21623XXSP,2013-07-20 23:21:00,
2013-07-20 18:26:00,89.4,76.6,29.95,North,0,0.0,0.0,66,0.00,,,0.00,WUHU21623XXSP,2013-07-20 23:26:00,
2013-07-20 18:31:00,88.9,76.5,29.95,North,0,0.0,0.0,67,0.00,,,0.00,WUHU21623XXSP,2013-07-20 23:31:00,
2013-07-20 18:36:00,88.3,76.4,29.95,North,0,0.0,0.0,68,0.00,,,0.00,WUHU21623XXSP,2013-07-20 23:36:00,
2013-07-20 18:41:00,87.8,75.9,29.95,North,0,0.0,0.0,68,0.00,,,0.00,WUHU21623XXSP,2013-07-20 23:41:00,
2013-07-20 18:46:00,87.1,75.7,29.95,North,0,0.0,0.0,69,0.00,,,0.00,WUHU21623XXSP,2013-07-20 23:46:00,
2013-07-20 18:51:00,86.7,75.8,29.96,North,0,0.0,0.0,70,0.00,,,0.00,WUHU21623XXSP,2013-07-20 23:51:00,
2013-07-20 18:56:00,86.2,75.4,29.96,North,0,0.0,0.0,70,0.00,,,0.00,WUHU21623XXSP,2013-07-20 23:56:00,
2013-07-20 19:02:00,86.2,75.8,29.95,North,0,0.0,0.0,71,0.00,,,0.00,WUHU21623XXSP,2013-07-21 00:02:00,
2013-07-20 19:07:00,85.8,75.4,29.95,North,0,0.0,0.0,71,0.00,,,0.00,WUHU21623XXSP,2013-07-21 00:07:00,
2013-07-20 19:12:00,85.3,75.6,29.95,North,0,0.0,0.0,72,0.00,,,0.00,WUHU21623XXSP,2013-07-21 00:12:00,
2013-07-20 19:17:00,85.1,75.3,29.96,North,0,0.0,0.0,73,0.00,,,0.00,WUHU21623XXSP,2013-07-21 00:17:00,
2013-07-20 19:22:00,84.7,75.1,29.96,North,0,0.0,0.0,73,0.00,,,0.00,WUHU21623XXSP,2013-07-21 00:22:00,
2013-07-20 19:27:00,84.6,74.9,29.96,North,0,0.0,0.0,73,0.00,,,0.00,WUHU21623XXSP,2013-07-21 00:27:00,
2013-07-20 19:33:00,84.0,74.8,29.96,North,0,0.0,0.0,74,0.00,,,0.00,WUHU21623XXSP,2013-07-21 00:33:00,
2013-07-20 19:38:00,83.8,74.8,29.96,North,0,0.0,0.0,74,0.00,,,0.00,WUHU21623XXSP,2013-07-21 00:38:00,
2013-07-20 19:43:00,83.5,74.7,29.96,North,0,0.0,0.0,75,0.00,,,0.00,WUHU21623XXSP,2013-07-21 00:43:00,
2013-07-20 19:48:00,82.9,74.2,29.95,North,0,0.0,0.0,75,0.00,,,0.00,WUHU21623XXSP,2013-07-21 00:48:00,
2013-07-20 19:54:00,82.8,74.4,29.96,North,0,0.0,0.0,76,0.00,,,0.00,WUHU21623XXSP,2013-07-21 00:54:00,
2013-07-20 19:59:00,82.2,74.3,29.95,North,0,0.0,0.0,77,0.00,,,0.00,WUHU21623XXSP,2013-07-21 00:59:00,
2013-07-20 20:04:00,82.0,74.1,29.95,North,0,0.0,0.0,77,0.00,,,0.00,WUHU21623XXSP,2013-07-21 01:04:00,
2013-07-20 20:09:00,82.0,74.1,29.95,North,0,0.0,0.0,77,0.00,,,0.00,WUHU21623XXSP,2013-07-21 01:09:00,
2013-07-20 20:14:00,81.7,74.2,29.96,North,0,0.0,0.0,78,0.00,,,0.00,WUHU21623XXSP,2013-07-21 01:14:00,
2013-07-20 20:19:00,81.3,73.8,29.96,North,0,0.0,0.0,78,0.00,,,0.00,WUHU21623XXSP,2013-07-21 01:19:00,
2013-07-20 20:24:00,81.1,74.1,29.96,North,0,0.0,0.0,79,0.00,,,0.00,WUHU21623XXSP,2013-07-21 01:24:00,
2013-07-20 20:30:00,81.0,73.9,29.97,North,0,0.0,0.0,79,0.00,,,0.00,WUHU21623XXSP,2013-07-21 01:30:00,
2013-07-20 20:35:00,80.8,73.7,29.97,North,0,0.0,0.0,79,0.00,,,0.00,WUHU21623XXSP,2013-07-21 01:35:00,
2013-07-20 20:40:00,80.4,73.8,29.97,North,0,0.0,0.0,80,0.00,,,0.00,WUHU21623XXSP,2013-07-21 01:40:00,
2013-07-20 20:45:00,80.4,73.8,29.97,North,0,0.0,0.0,80,0.00,,,0.00,WUHU21623XXSP,2013-07-21 01:45:00,
2013-07-20 20:50:00,80.2,73.6,29.97,North,0,0.0,0.0,80,0.00,,,0.00,WUHU21623XXSP,2013-07-21 01:50:00,
2013-07-20 20:55:00,80.2,73.6,29.97,North,0,0.0,0.0,80,0.00,,,0.00,WUHU21623XXSP,2013-07-21 01:55:00,
2013-07-20 21:00:00,79.9,73.2,29.98,North,0,0.0,0.0,80,0.00,,,0.00,WUHU21623XXSP,2013-07-21 02:00:00,
2013-07-20 21:06:00,79.9,73.2,29.97,North,0,0.0,0.0,81,0.00,,,0.00,WUHU21623XXSP,2013-07-21 02:06:00,
2013-07-20 21:11:00,79.5,73.2,29.98,North,0,0.0,0.0,81,0.00,,,0.00,WUHU21623XXSP,2013-07-21 02:11:00,
2013-07-20 21:16:00,79.5,73.2,29.98,North,0,0.0,0.0,81,0.00,,,0.00,WUHU21623XXSP,2013-07-21 02:16:00,
2013-07-20 21:21:00,79.5,73.2,29.98,North,0,0.0,0.0,81,0.00,,,0.00,WUHU21623XXSP,2013-07-21 02:21:00,
2013-07-20 21:26:00,79.3,73.0,29.98,North,0,0.0,0.0,81,0.00,,,0.00,WUHU21623XXSP,2013-07-21 02:26:00,
2013-07-20 21:31:00,79.2,73.2,29.98,North,0,0.0,0.0,82,0.00,,,0.00,WUHU21623XXSP,2013-07-21 02:31:00,
2013-07-20 21:36:00,79.0,73.0,29.99,North,0,0.0,0.0,82,0.00,,,0.00,WUHU21623XXSP,2013-07-21 02:36:00,
2013-07-20 21:41:00,79.0,73.0,29.98,North,0,0.0,0.0,82,0.00,,,0.00,WUHU21623XXSP,2013-07-21 02:41:00,
2013-07-20 21:46:00,78.6,72.7,29.98,North,0,0.0,0.0,82,0.00,,,0.00,WUHU21623XXSP,2013-07-21 02:46:00,
2013-07-20 21:51:00,78.6,73.0,29.99,North,0,0.0,0.0,83,0.00,,,0.00,WUHU21623XXSP,2013-07-21 02:51:00,
2013-07-20 21:56:00,78.6,73.0,29.99,North,0,0.0,0.0,83,0.00,,,0.00,WUHU21623XXSP,2013-07-21 02:56:00,
2013-07-20 22:02:00,78.4,72.9,29.99,North,0,0.0,0.0,83,0.00,,,0.00,WUHU21623XXSP,2013-07-21 03:02:00,
2013-07-20 22:07:00,78.4,72.9,29.99,North,0,0.0,0.0,83,0.00,,,0.00,WUHU21623XXSP,2013-07-21 03:07:00,
2013-07-20 22:12:00,78.4,72.9,29.99,North,0,0.0,0.0,83,0.00,,,0.00,WUHU21623XXSP,2013-07-21 03:12:00,
2013-07-20 22:17:00,78.4,73.2,29.99,North,0,0.0,0.0,84,0.00,,,0.00,WUHU21623XXSP,2013-07-21 03:17:00,
2013-07-20 22:22:00,78.4,73.2,29.99,North,0,0.0,0.0,84,0.00,,,0.00,WUHU21623XXSP,2013-07-21 03:22:00,
2013-07-20 22:27:00,78.6,73.4,29.99,North,0,0.0,0.0,84,0.00,,,0.00,WUHU21623XXSP,2013-07-21 03:27:00,
2013-07-20 22:32:00,78.6,73.4,30.00,North,0,0.0,0.0,84,0.00,,,0.00,WUHU21623XXSP,2013-07-21 03:32:00,
2013-07-20 22:37:00,78.6,73.4,30.00,North,0,0.0,0.0,84,0.00,,,0.00,WUHU21623XXSP,2013-07-21 03:37:00,
2013-07-20 22:42:00,78.6,73.4,30.00,North,0,0.0,0.0,84,0.00,,,0.00,WUHU21623XXSP,2013-07-21 03:42:00,
2013-07-20 22:47:00,78.6,73.4,30.01,North,0,0.0,0.0,84,0.00,,,0.00,WUHU21623XXSP,2013-07-21 03:47:00,
2013-07-20 22:52:00,78.8,73.6,30.00,North,0,0.0,0.0,84,0.00,,,0.00,WUHU21623XXSP,2013-07-21 03:52:00,
2013-07-20 22:58:00,78.8,73.6,30.01,North,0,0.0,0.0,84,0.00,,,0.00,WUHU21623XXSP,2013-07-21 03:58:00,
2013-07-20 23:01:00,78.6,73.4,30.01,North,0,0.0,0.0,84,0.00,,,0.00,WUHU21623XXSP,2013-07-21 04:01:00,
2013-07-20 23:06:00,78.8,73.6,30.02,North,0,0.0,0.0,84,0.00,,,0.00,WUHU21623XXSP,2013-07-21 04:06:00,
2013-07-20 23:11:00,78.6,73.4,30.01,North,0,0.0,0.0,84,0.00,,,0.00,WUHU21623XXSP,2013-07-21 04:11:00,
2013-07-20 23:16:00,78.8,73.6,30.01,North,0,0.0,0.0,84,0.00,,,0.00,WUHU21623XXSP,2013-07-21 04:16:00,
2013-07-20 23:21:00,78.8,73.6,30.01,North,0,0.0,0.0,84,0.00,,,0.00,WUHU21623XXSP,2013-07-21 04:21:00,
2013-07-20 23:26:00,78.8,73.6,30.01,North,0,0.0,0.0,84,0.00,,,0.00,WUHU21623XXSP,2013-07-21 04:26:00,
2013-07-20 23:31:00,78.8,73.6,30.01,North,0,0.0,0.0,84,0.00,,,0.00,WUHU21623XXSP,2013-07-21 04:31:00,
2013-07-20 23:36:00,78.6,73.6,30.02,North,0,0.0,0.0,85,0.00,,,0.00,WUHU21623XXSP,2013-07-21 04:36:00,
2013-07-20 23:41:00,78.8,73.9,30.02,North,0,0.0,0.0,85,0.00,,,0.00,WUHU21623XXSP,2013-07-21 04:41:00,
2013-07-20 23:46:00,78.6,73.8,30.02,North,0,0.0,0.0,85,0.00,,,0.00,WUHU21623XXSP,2013-07-21 04:46:00,
2013-07-20 23:51:00,78.6,73.8,30.02,North,0,0.0,0.0,85,0.00,,,0.00,WUHU21623XXSP,2013-07-21 04:51:00,
2013-07-20 23:56:00,78.6,73.8,30.02,North,0,0.0,0.0,85,0.00,,,0.00,WUHU21623XXSP,2013-07-21 04:56:00,